TimePDT,TemperatureF,Dew PointF,Humidity,Sea Level PressureIn,VisibilityMPH,Wind Direction,Wind SpeedMPH,Gust SpeedMPH,PrecipitationIn,Events,Conditions,WindDirDegrees,DateUTC
12:04 AM,50.0,44.6,82,30.21,10.0,Calm,Calm,-,N/A,,Overcast,0,2013-04-10 07:04:00
12:55 AM,52.0,39.0,61,30.20,10.0,SSW,10.4,16.1,N/A,,Overcast,200,2013-04-10 07:55:00
1:24 AM,51.8,42.8,71,30.20,10.0,SSW,6.9,-,N/A,,Overcast,200,2013-04-10 08:24:00
1:41 AM,51.8,42.8,71,30.19,10.0,SSW,11.5,18.4,N/A,,Overcast,200,2013-04-10 08:41:00
1:55 AM,52.0,42.1,69,30.19,10.0,SSW,11.5,21.9,N/A,,Overcast,200,2013-04-10 08:55:00
2:55 AM,50.0,48.0,93,30.17,4.0,South,9.2,18.4,0.00,Rain,Light Rain,190,2013-04-10 09:55:00
3:04 AM,50.0,48.2,94,30.16,3.0,South,12.7,-,0.01,Rain,Light Rain,190,2013-04-10 10:04:00
3:13 AM,51.8,48.2,88,30.16,4.0,South,12.7,18.4,0.01,Rain,Light Rain,190,2013-04-10 10:13:00
3:37 AM,51.8,48.2,88,30.16,5.0,South,10.4,-,0.02,Rain,Light Rain,190,2013-04-10 10:37:00
3:55 AM,51.1,48.9,92,30.15,7.0,South,12.7,21.9,0.02,,Overcast,190,2013-04-10 10:55:00
4:40 AM,51.8,48.2,88,30.13,6.0,SSW,13.8,24.2,N/A,,Overcast,210,2013-04-10 11:40:00
4:55 AM,51.1,48.9,92,30.12,10.0,SSW,12.7,23.0,N/A,,Overcast,200,2013-04-10 11:55:00
5:27 AM,51.8,48.2,88,30.11,5.0,SSW,12.7,21.9,0.00,Rain,Light Rain,210,2013-04-10 12:27:00
5:55 AM,51.1,48.9,92,30.10,5.0,SSW,16.1,26.5,0.01,Rain,Light Rain,200,2013-04-10 12:55:00
6:02 AM,51.8,48.2,88,30.09,4.0,South,18.4,27.6,0.01,Rain,Light Rain,190,2013-04-10 13:02:00
6:28 AM,51.8,48.2,88,30.07,10.0,SSW,18.4,27.6,0.02,,Overcast,200,2013-04-10 13:28:00
6:55 AM,51.1,48.9,92,30.08,4.0,SSW,19.6,31.1,0.02,Rain,Light Rain,210,2013-04-10 13:55:00
7:02 AM,51.8,48.2,88,30.08,2.5,SSW,16.1,34.5,0.01,Rain,Light Rain,200,2013-04-10 14:02:00
7:15 AM,51.8,48.2,88,30.07,1.5,SSW,21.9,35.7,0.03,Rain,Light Rain,200,2013-04-10 14:15:00
7:20 AM,51.8,48.2,88,30.06,2.0,South,25.3,34.5,0.04,Rain,Light Rain,190,2013-04-10 14:20:00
7:48 AM,51.8,48.2,88,30.06,1.8,SSW,21.9,35.7,0.05,Rain,Light Rain,210,2013-04-10 14:48:00
7:55 AM,51.1,48.9,92,30.06,1.5,SSW,18.4,34.5,0.05,Rain,Light Rain,200,2013-04-10 14:55:00
8:03 AM,51.8,48.2,88,30.07,1.2,SSW,20.7,39.1,0.00,Rain,Light Rain,200,2013-04-10 15:03:00
8:19 AM,51.8,48.2,88,30.07,1.5,SSW,21.9,33.4,0.07,Rain,Rain,200,2013-04-10 15:19:00
8:29 AM,51.8,48.2,88,30.07,2.0,SSW,23.0,33.4,0.10,Rain,Rain,200,2013-04-10 15:29:00
8:38 AM,51.8,48.2,88,30.07,1.8,SSW,20.7,33.4,0.14,Rain,Rain,200,2013-04-10 15:38:00
8:55 AM,51.1,48.9,92,30.08,2.0,SSW,23.0,38.0,0.20,Rain,Rain,210,2013-04-10 15:55:00
9:17 AM,51.8,48.2,88,30.09,1.2,SW,16.1,27.6,0.08,Rain,Rain,220,2013-04-10 16:17:00
9:55 AM,51.8,48.2,88,30.12,1.2,WSW,18.4,25.3,N/A,Rain,Light Rain,240,2013-04-10 16:55:00
10:02 AM,51.8,48.2,88,30.13,1.5,West,17.3,25.3,0.00,Rain,Light Rain,260,2013-04-10 17:02:00
10:12 AM,50.0,48.2,94,30.14,3.0,West,15.0,27.6,0.01,Rain,Light Rain,280,2013-04-10 17:12:00
10:38 AM,50.0,46.4,87,30.17,10.0,WNW,18.4,29.9,0.01,,Overcast,290,2013-04-10 17:38:00
10:55 AM,50.0,46.9,89,30.18,9.0,WNW,15.0,23.0,0.01,Rain,Light Rain,290,2013-04-10 17:55:00
11:05 AM,51.8,46.4,82,30.19,10.0,NW,13.8,23.0,N/A,,Overcast,310,2013-04-10 18:05:00
11:23 AM,51.8,46.4,82,30.20,10.0,WNW,13.8,-,N/A,,Overcast,290,2013-04-10 18:23:00
11:55 AM,51.8,46.4,82,30.20,10.0,West,19.6,27.6,N/A,,Mostly Cloudy,280,2013-04-10 18:55:00
12:55 PM,52.0,45.0,77,30.23,10.0,WNW,17.3,25.3,N/A,,Overcast,290,2013-04-10 19:55:00
1:55 PM,52.0,43.0,71,30.26,10.0,NW,17.3,-,N/A,,Overcast,320,2013-04-10 20:55:00
2:55 PM,52.0,44.1,74,30.29,10.0,WNW,12.7,-,0.00,,Overcast,300,2013-04-10 21:55:00
3:02 PM,51.8,42.8,71,30.29,10.0,NW,12.7,-,N/A,,Overcast,310,2013-04-10 22:02:00
3:23 PM,51.8,42.8,71,30.30,10.0,NW,16.1,-,N/A,,Overcast,320,2013-04-10 22:23:00
3:55 PM,52.0,42.1,69,30.30,10.0,WNW,12.7,-,N/A,,Overcast,300,2013-04-10 22:55:00
4:13 PM,51.8,42.8,71,30.30,10.0,NW,13.8,21.9,N/A,,Overcast,310,2013-04-10 23:13:00
4:26 PM,51.8,42.8,71,30.30,10.0,West,10.4,-,N/A,,Overcast,280,2013-04-10 23:26:00
4:55 PM,51.1,41.0,68,30.30,10.0,WNW,13.8,20.7,N/A,,Overcast,300,2013-04-10 23:55:00
5:28 PM,51.8,42.8,71,30.30,10.0,West,13.8,-,N/A,,Overcast,260,2013-04-11 00:28:00
5:40 PM,51.8,42.8,71,30.30,10.0,West,13.8,20.7,N/A,,Overcast,280,2013-04-11 00:40:00
5:55 PM,51.1,43.0,74,30.30,10.0,West,13.8,-,N/A,,Overcast,270,2013-04-11 00:55:00
6:55 PM,50.0,43.0,77,30.30,10.0,West,8.1,-,N/A,,Scattered Clouds,270,2013-04-11 01:55:00
7:55 PM,48.0,42.1,80,30.30,10.0,West,9.2,-,N/A,,Partly Cloudy,280,2013-04-11 02:55:00
8:55 PM,46.9,41.0,80,30.31,10.0,West,9.2,-,N/A,,Partly Cloudy,280,2013-04-11 03:55:00
9:55 PM,48.0,42.1,80,30.33,10.0,West,5.8,-,N/A,,Overcast,270,2013-04-11 04:55:00
10:22 PM,46.4,42.8,87,30.34,9.0,West,10.4,-,0.00,Rain,Light Rain,280,2013-04-11 05:22:00
10:32 PM,46.4,41.0,81,30.33,10.0,WSW,4.6,-,0.00,,Overcast,250,2013-04-11 05:32:00
10:55 PM,46.9,42.1,83,30.33,10.0,WNW,6.9,-,0.00,,Overcast,300,2013-04-11 05:55:00
11:55 PM,46.9,41.0,80,30.34,10.0,West,3.5,-,0.00,,Overcast,270,2013-04-11 06:55:00